This demonstration page uses our WeatherBlox Daily Observations layout. Learn more.

Left ArrowRight Arrow

Hourly Observations for November 17, 2019

Temp ( °F °C ) Dew Point ( °F °C ) Humidity (%) Winds ( mph kmh ) Pressure ( in mb ) Visibility ( mi km ) Precip ( " mm )
12:53 am 00:53 Cloudy 45 7.2 36 2.2 71 71 NW 10 17 30.07 1018 10 16 0.00 0.00
1:53 am 01:53 Cloudy 46 7.8 35 1.7 66 66 NNW 16 26 30.07 1018 10 16 0.00 0.00
2:53 am 02:53 Clear 45 7.2 34 1.1 66 66 NNW 16 26 30.07 1018 10 16 0.00 0.00
3:53 am 03:53 Clear 42 5.6 33 0.6 71 71 NW 12 19 30.08 1019 10 16 0.00 0.00
4:53 am 04:53 Clear 37 2.8 31 -0.6 79 79 WNW 8 13 30.09 1019 10 16 0.00 0.00
5:53 am 05:53 Clear 36 2.2 31 -0.6 82 82 NW 8 13 30.09 1019 10 16 0.00 0.00
6:53 am 06:53 Clear 33 0.6 28 -2.2 82 82 NW 8 13 30.09 1019 10 16 0.00 0.00
7:53 am 07:53 Sunny 35 1.7 29 -1.7 78 78 NW 12 19 30.11 1020 10 16 0.00 0.00
8:53 am 08:53 Sunny 39 3.9 31 -0.6 73 73 NW 13 20 30.12 1020 10 16 0.00 0.00
9:53 am 09:53 Sunny 44 6.7 31 -0.6 60 60 NNW 15 24 30.10 1019 10 16 0.00 0.00
10:53 am 10:53 Sunny 48 8.9 31 -0.6 52 52 NNW 15 24 30.09 1019 10 16 0.00 0.00
11:53 am 11:53 Sunny 51 10.6 29 -1.7 43 43 NNW 16 26 30.07 1018 10 16 0.00 0.00
12:53 pm 12:53 Sunny 53 11.7 28 -2.2 38 38 NNW 15 24 30.04 1017 10 16 0.00 0.00
1:53 pm 13:53 Sunny 55 12.8 27 -2.8 34 34 NW 12 19 30.00 1016 10 16 0.00 0.00
2:53 pm 14:53 Sunny 56 13.3 27 -2.8 33 33 NNW 9 15 29.98 1015 10 16 0.00 0.00
3:53 pm 15:53 Sunny 57 13.9 26 -3.3 30 30 NW 10 17 29.97 1015 10 16 0.00 0.00
4:53 pm 16:53 Sunny 50 10 26 -3.3 39 39 NE 5 7 29.97 1015 10 16 0.00 0.00
5:53 pm 17:53 Clear 43 6.1 25 -3.9 49 49 Calm 29.98 1015 10 16 0.00 0.00
6:53 pm 18:53 Clear 44 6.7 27 -2.8 51 51 SSE 3 6 29.97 1015 10 16 0.00 0.00
7:53 pm 19:53 Clear 44 6.7 26 -3.3 49 49 S 5 7 29.96 1014 10 16 0.00 0.00
8:53 pm 20:53 Clear 42 5.6 26 -3.3 53 53 S 7 11 29.93 1014 10 16 0.00 0.00
9:53 pm 21:53 Clear 40 4.4 26 -3.3 58 58 S 7 11 29.91 1013 10 16 0.00 0.00
10:53 pm 22:53 Clear 38 3.3 25 -3.9 60 60 S 6 9 29.88 1012 10 16 0.00 0.00
11:53 pm 23:53 Mostly Cloudy 38 3.3 25 -3.9 60 60 SSW 6 9 29.87 1011 10 16 0.00 0.00

Powered by AerisWeather